45P/Honda-Mrkos-Pajdusakova (2006)

Japanese version
Home page
Total 6,336 html files since Dec. 4, 1995
Updated on August 26, 2006

---------------------------------------------------------------------

* Profile

* Pictures

* Orbital Elements

The following orbital elements are taken from MPC 56957:

Epoch 2006 July 4.0 TT = JDT 2453920.5
T 2006 June 29.8039 TT                                  MPC
q   0.530256             (2000.0)            P               Q
n   0.1876368      Peri.  326.1196      +0.5687544      -0.8191580
a   3.021741       Node    89.1100      +0.7701270      +0.4987067
e   0.824520       Incl.    4.2531      +0.2888302      +0.2833229
P   5.25
From 86 observations 2000-2006, mean residual 0".8.

* Finding Charts

* Magnitudes Graph

        m1 = 16.0 + 5 log d + 30.0 log r  [ ,0]  (             - 2006 June 29)
        m1 = 12.0 + 5 log d + 15.0 log r  [0, ]  (2006 June 29 -             )

---------------------------------------------------------------------

The orbital elements are published at the MPC Ephemerides and Orbital Elements.
The charts are made with StellaNavigator Ver.2.0 for Windows (AstroArts / ASCII).
The magnitudes graphs are made with Comet for Windows.

---------------------------------------------------------------------

Copyright(C) 1995-2008 Seiichi Yoshida (comet@aerith.net). All rights reserved.